Погода в Полисе

Кипр     35°02′01″N   32°25′32″E
темп.,
°C
ветер,
м/с
пор.,
м/с
влажн.,
%
обл.,
%
осадки,
мм/ч
давл.,
гПа
погр.,
м
14 мая, пт
пт1400:00+15с11700 0.0 101428
03:00+15сз12710 0.0 101436
06:00+14ссв11710 0.0 101431
09:00+23юз22290 0.0 1014517
12:00+25зюз433550 0.0 10151080
15:00+25з44340 0.0 1014953
18:00+22з32475 0.0 1014589
21:00+16сз12830 0.0 101446
15 мая, сб
сб1500:00+15ссз12830 0.0 101441
03:00+14ссз12760 0.0 101341
06:00+14юз01730 0.0 101340
09:00+22зюз22480 0.0 1013482
12:00+25з44385 0.0 1013830
15:00+26з44285 0.0 1011731
18:00+22зсз34464 0.0 1011526
21:00+16св12700 0.0 101132
16 мая, вс
вс1600:00+15ююз01630 0.0 101135
03:00+15ю225598 0.0 100928
06:00+16ю3358100 0.0 100932
09:00+22ююз2237100 0.0 1009468
12:00+25юз4431100 0.0 10091023
15:00+25юз45335 0.0 1009937
18:00+22юз35410 0.0 1008678
21:00+17ююз23770 0.0 100966
17 мая, пн
пн1700:00+15з128923 0.0 100982
03:00+14ссз129049 0.0 100878
06:00+14з01900 0.0 100859
09:00+20з22550 0.0 1010771
12:00+24з43460 0.0 10101229
15:00+23з53500 0.0 1010962
18:00+22зсз33520 0.0 1010653
21:00+17сз22860 0.0 101264
18 мая, вт
вт1800:00+16ссз12910 0.0 101247
03:00+15с11860 0.0 101235
06:00+16ююв12620 0.0 101223
09:00+23юз22390 0.0 1013515
12:00+27зюз33370 0.0 10131137
15:00+27з43361 0.0 1012928
18:00+24з324222 0.0 1012551
21:00+18зсз12785 0.0 101334